contact:dominique.lefevre@mio.osupytheas.fr, maurice.libes@osupytheas.fr, didier.mallarino@osupytheas.fr
Project:EMSO http://www.emso-fr.org/EMSO-France
Depth: 2436.0 m
Title:EMSO Ligure Ouest : Data MII capteur AQUADOPP
Date,Latitude,Longitude,X_East,Y_North,Z_Up,Amplitude_X,Amplitude_Y,Amplitude_Z,Batterie,SoundSpeed,Heading,Pitch,Roll,Pressure,TIS,Speed,Direction
, degrees North, degrees East, m.s-1, m.s-1,m.s-1, 1, 1, 1, Volt, m.s-1, degree, degree, degree, dbar, degree_C, m.s-1, degree
2020-11-16T00:04:03,42.805,6.029,-0.01,0.016,0.025,101.0,109.0,99.0,13.4,1505.3,325.6,-0.8,1.8,2470.372,13.31,0.018,328.0
2020-11-16T00:07:03,42.805,6.029,0.013,0.0,0.005,101.0,109.0,99.0,13.3,1505.3,326.1,-0.7,1.8,2470.348,13.32,0.013,90.0
2020-11-16T00:10:03,42.805,6.029,-0.032,-0.015,-0.011,100.0,113.0,98.0,13.3,1505.3,324.1,-0.7,1.8,2470.334,13.32,0.035,244.9
2020-11-16T00:13:03,42.805,6.029,-0.014,0.021,0.019,100.0,110.0,98.0,13.4,1505.3,322.7,-0.7,1.8,2470.329,13.32,0.025,326.3
2020-11-16T00:16:03,42.805,6.029,0.0,-0.018,-0.016,101.0,106.0,99.0,13.3,1505.3,325.4,-0.7,1.8,2470.355,13.33,0.018,180.0
2020-11-16T00:19:03,42.805,6.029,-0.034,0.013,-0.01,100.0,106.0,98.0,13.4,1505.3,326.4,-0.7,1.8,2470.336,13.33,0.036,290.9
2020-11-16T00:22:03,42.805,6.029,-0.014,0.028,0.018,101.0,106.0,99.0,13.4,1505.3,324.1,-0.7,1.8,2470.312,13.33,0.031,333.4
2020-11-16T00:25:03,42.805,6.029,-0.021,0.018,0.007,99.0,109.0,100.0,13.4,1505.3,323.5,-0.7,1.8,2470.311,13.33,0.027,310.6
2020-11-16T00:28:03,42.805,6.029,-0.018,0.007,0.003,100.0,106.0,99.0,13.4,1505.3,326.8,-0.7,1.8,2470.332,13.33,0.019,291.2
2020-11-16T00:31:03,42.805,6.029,0.007,0.018,0.013,100.0,109.0,99.0,13.4,1505.3,325.3,-0.7,1.8,2470.325,13.33,0.019,21.2
2020-11-16T00:34:03,42.805,6.029,-0.024,0.016,0.043,100.0,107.0,99.0,13.4,1505.3,327.6,-0.7,1.9,2470.33,13.33,0.028,303.7
2020-11-16T00:37:03,42.805,6.029,-0.02,0.001,0.001,100.0,105.0,101.0,13.4,1505.3,326.7,-0.7,1.9,2470.276,13.33,0.02,272.9
2020-11-16T00:40:03,42.805,6.029,-0.017,0.009,0.008,101.0,110.0,99.0,13.4,1505.3,326.7,-0.7,1.8,2470.326,13.33,0.019,297.9
2020-11-16T00:43:03,42.805,6.029,-0.043,0.032,0.039,101.0,111.0,98.0,13.4,1505.3,325.1,-0.7,1.8,2470.321,13.33,0.053,306.7
2020-11-16T00:46:03,42.805,6.029,-0.01,0.012,0.016,100.0,108.0,99.0,13.4,1505.3,325.2,-0.7,1.8,2470.237,13.33,0.015,320.2
2020-11-16T00:49:03,42.805,6.029,-0.026,0.017,0.041,101.0,109.0,100.0,13.4,1505.3,324.3,-0.7,1.8,2470.259,13.33,0.031,303.2
2020-11-16T00:52:03,42.805,6.029,-0.03,-0.006,0.022,100.0,109.0,99.0,13.3,1505.3,324.8,-0.7,1.8,2470.293,13.33,0.03,258.7
2020-11-16T00:55:03,42.805,6.029,-0.027,0.01,-0.016,100.0,109.0,99.0,13.4,1505.3,326.5,-0.7,1.9,2470.265,13.33,0.028,290.3
2020-11-16T00:58:03,42.805,6.029,-0.049,0.016,-0.034,101.0,110.0,98.0,13.4,1505.3,324.5,-0.7,1.8,2470.284,13.33,0.051,288.1
2020-11-16T01:04:03,42.805,6.029,-0.024,0.025,0.024,102.0,110.0,100.0,13.4,1505.3,327.7,-0.7,1.8,2470.345,13.31,0.034,316.2
2020-11-16T01:07:03,42.805,6.029,-0.034,0.016,-0.012,101.0,110.0,99.0,13.4,1505.3,324.4,-0.7,1.8,2470.311,13.32,0.037,295.2
2020-11-16T01:10:03,42.805,6.029,-0.025,0.004,-0.012,101.0,108.0,100.0,13.4,1505.3,325.7,-0.7,1.8,2470.299,13.32,0.025,279.1
2020-11-16T01:13:03,42.805,6.029,-0.033,0.013,-0.012,100.0,108.0,99.0,13.3,1505.3,324.2,-0.7,1.8,2470.265,13.32,0.035,291.5
2020-11-16T01:16:03,42.805,6.029,-0.009,0.008,0.02,100.0,110.0,99.0,13.4,1505.3,325.8,-0.7,1.8,2470.289,13.33,0.012,311.6
2020-11-16T01:19:03,42.805,6.029,-0.056,0.007,0.003,100.0,114.0,98.0,13.4,1505.3,324.7,-0.7,1.8,2470.287,13.33,0.056,277.1
2020-11-16T01:22:03,42.805,6.029,-0.027,0.004,-0.027,101.0,107.0,100.0,13.4,1505.3,325.3,-0.7,1.8,2470.271,13.33,0.027,278.4
2020-11-16T01:25:03,42.805,6.029,-0.021,0.008,0.001,101.0,109.0,100.0,13.4,1505.3,327.0,-0.7,1.8,2470.257,13.33,0.022,290.9
2020-11-16T01:28:03,42.805,6.029,-0.048,-0.012,-0.011,101.0,110.0,98.0,13.4,1505.3,326.8,-0.7,1.9,2470.332,13.33,0.049,256.0
2020-11-16T01:31:03,42.805,6.029,-0.018,0.0,-0.035,101.0,110.0,99.0,13.4,1505.3,326.2,-0.7,1.8,2470.274,13.33,0.018,270.0
2020-11-16T01:34:03,42.805,6.029,-0.051,0.007,0.02,101.0,114.0,100.0,13.3,1505.3,323.3,-0.7,1.8,2470.244,13.33,0.051,277.8
2020-11-16T01:37:03,42.805,6.029,-0.04,0.022,0.0,102.0,112.0,99.0,13.4,1505.3,327.0,-0.7,1.8,2470.271,13.33,0.045,298.8
2020-11-16T01:40:03,42.805,6.029,-0.029,0.017,-0.027,101.0,110.0,99.0,13.4,1505.3,326.0,-0.7,1.8,2470.281,13.33,0.033,300.4
2020-11-16T01:43:03,42.805,6.029,-0.028,0.003,0.025,101.0,108.0,100.0,13.4,1505.3,324.9,-0.7,1.9,2470.289,13.33,0.028,276.1
2020-11-16T01:46:03,42.805,6.029,-0.069,-0.012,-0.054,101.0,111.0,100.0,13.4,1505.3,325.2,-0.7,1.8,2470.296,13.33,0.07,260.1
2020-11-16T01:49:03,42.805,6.029,-0.04,0.01,-0.013,102.0,113.0,99.0,13.4,1505.3,324.8,-0.7,1.9,2470.276,13.33,0.041,284.0
2020-11-16T01:52:03,42.805,6.029,-0.046,0.012,-0.029,101.0,112.0,99.0,13.4,1505.3,324.9,-0.7,1.8,2470.255,13.33,0.047,284.6
2020-11-16T01:55:03,42.805,6.029,-0.029,-0.004,-0.033,100.0,109.0,100.0,13.3,1505.3,326.6,-0.7,1.8,2470.22,13.33,0.029,262.2
2020-11-16T01:58:03,42.805,6.029,-0.031,0.002,-0.019,100.0,110.0,100.0,13.4,1505.3,324.3,-0.7,1.8,2470.252,13.33,0.031,273.7
2020-11-16T02:04:03,42.805,6.029,-0.046,0.0,-0.023,100.0,112.0,100.0,13.4,1505.3,325.0,-0.8,1.8,2470.344,13.31,0.046,270.0
2020-11-16T02:07:03,42.805,6.029,-0.027,-0.001,-0.006,99.0,112.0,100.0,13.4,1505.3,325.3,-0.7,1.9,2470.283,13.32,0.027,267.9
2020-11-16T02:10:03,42.805,6.029,-0.011,-0.02,-0.026,102.0,108.0,99.0,13.3,1505.3,325.6,-0.7,1.8,2470.295,13.32,0.022,208.8
2020-11-16T02:13:03,42.805,6.029,-0.035,0.018,0.002,102.0,110.0,100.0,13.3,1505.3,328.1,-0.7,1.8,2470.282,13.33,0.039,297.2
2020-11-16T02:16:03,42.805,6.029,-0.025,0.003,0.025,102.0,109.0,100.0,13.4,1505.3,325.2,-0.7,1.8,2470.307,13.33,0.025,276.8
2020-11-16T02:19:03,42.805,6.029,-0.025,0.035,0.013,102.0,113.0,100.0,13.4,1505.3,322.8,-0.7,1.8,2470.285,13.33,0.043,324.5
2020-11-16T02:22:03,42.805,6.029,-0.034,0.018,0.0,102.0,110.0,100.0,13.4,1505.3,323.8,-0.7,1.8,2470.271,13.33,0.038,297.9
2020-11-16T02:25:03,42.805,6.029,-0.034,0.002,0.009,102.0,110.0,99.0,13.4,1505.3,323.5,-0.7,1.8,2470.276,13.33,0.034,273.4
2020-11-16T02:28:03,42.805,6.029,-0.003,0.003,0.002,103.0,108.0,100.0,13.4,1505.3,323.4,-0.7,1.8,2470.279,13.33,0.004,315.0
2020-11-16T02:31:03,42.805,6.029,-0.045,0.014,-0.007,102.0,111.0,100.0,13.4,1505.3,323.1,-0.7,1.8,2470.255,13.33,0.047,287.3
2020-11-16T02:34:03,42.805,6.029,0.011,-0.001,-0.018,100.0,110.0,100.0,13.3,1505.3,327.7,-0.7,1.8,2470.289,13.33,0.011,95.2
2020-11-16T02:37:03,42.805,6.029,-0.023,0.016,-0.018,101.0,108.0,100.0,13.3,1505.3,325.1,-0.7,1.8,2470.269,13.33,0.028,304.8
2020-11-16T02:40:03,42.805,6.029,-0.009,0.015,0.02,101.0,109.0,101.0,13.4,1505.3,322.4,-0.7,1.8,2470.305,13.33,0.017,329.0
2020-11-16T02:43:03,42.805,6.029,-0.024,0.021,0.021,102.0,109.0,100.0,13.3,1505.3,324.4,-0.7,1.8,2470.262,13.33,0.031,311.2
2020-11-16T02:46:03,42.805,6.029,-0.05,0.018,-0.017,102.0,113.0,100.0,13.3,1505.3,326.3,-0.7,1.8,2470.306,13.33,0.053,289.8
2020-11-16T02:49:03,42.805,6.029,-0.015,0.016,-0.003,104.0,108.0,99.0,13.4,1505.3,325.0,-0.7,1.8,2470.308,13.33,0.021,316.9
2020-11-16T02:52:03,42.805,6.029,-0.005,0.021,-0.018,102.0,110.0,100.0,13.3,1505.3,326.5,-0.7,1.9,2470.239,13.33,0.021,346.6
2020-11-16T02:55:03,42.805,6.029,-0.037,0.018,-0.015,102.0,112.0,100.0,13.4,1505.3,327.0,-0.7,1.8,2470.268,13.33,0.041,295.9
2020-11-16T02:58:03,42.805,6.029,-0.022,0.003,-0.023,101.0,110.0,100.0,13.4,1505.3,325.5,-0.7,1.8,2470.31,13.33,0.022,277.8
2020-11-16T03:04:03,42.805,6.029,-0.029,0.016,-0.004,102.0,113.0,100.0,13.3,1505.3,325.7,-0.7,1.8,2470.333,13.31,0.033,298.9
2020-11-16T03:07:03,42.805,6.029,-0.036,0.019,-0.014,101.0,114.0,100.0,13.4,1505.3,324.9,-0.7,1.8,2470.333,13.32,0.04,297.8
2020-11-16T03:10:03,42.805,6.029,-0.021,0.005,-0.012,101.0,112.0,99.0,13.4,1505.3,325.6,-0.7,1.8,2470.302,13.32,0.021,283.4
2020-11-16T03:13:03,42.805,6.029,-0.039,-0.005,0.027,100.0,109.0,99.0,13.4,1505.3,325.6,-0.7,1.8,2470.338,13.33,0.039,262.7
2020-11-16T03:16:03,42.805,6.029,-0.013,0.009,0.014,101.0,109.0,100.0,13.4,1505.3,324.4,-0.7,1.8,2470.314,13.33,0.015,304.7
2020-11-16T03:19:03,42.805,6.029,-0.013,0.004,-0.012,101.0,108.0,101.0,13.3,1505.3,328.4,-0.7,1.8,2470.276,13.33,0.013,287.1
2020-11-16T03:22:03,42.805,6.029,-0.007,-0.006,0.005,102.0,106.0,100.0,13.4,1505.3,323.6,-0.7,1.8,2470.293,13.33,0.009,229.4
2020-11-16T03:25:03,42.805,6.029,-0.033,0.013,0.007,101.0,110.0,99.0,13.4,1505.3,325.0,-0.7,1.8,2470.34,13.33,0.035,291.5
2020-11-16T03:28:03,42.805,6.029,-0.048,0.012,-0.029,100.0,109.0,99.0,13.3,1505.3,326.5,-0.7,1.8,2470.309,13.33,0.049,284.0
2020-11-16T03:31:03,42.805,6.029,-0.013,0.022,0.024,101.0,107.0,100.0,13.4,1505.3,325.5,-0.7,1.9,2470.34,13.33,0.025,329.4
2020-11-16T03:34:03,42.805,6.029,-0.032,0.014,0.007,101.0,107.0,100.0,13.4,1505.3,325.1,-0.7,1.8,2470.359,13.33,0.034,293.6
2020-11-16T03:37:03,42.805,6.029,-0.03,0.013,-0.025,100.0,110.0,99.0,13.4,1505.3,325.1,-0.7,1.8,2470.312,13.33,0.032,293.4
2020-11-16T03:40:03,42.805,6.029,0.0,0.01,0.008,99.0,110.0,100.0,13.3,1505.3,328.0,-0.7,1.9,2470.293,13.33,0.01,0.0
2020-11-16T03:43:03,42.805,6.029,-0.043,0.005,-0.021,100.0,112.0,100.0,13.4,1505.3,323.2,-0.7,1.9,2470.339,13.33,0.043,276.6
2020-11-16T03:46:03,42.805,6.029,-0.034,-0.005,0.004,100.0,108.0,100.0,13.3,1505.3,326.5,-0.7,1.8,2470.313,13.33,0.034,261.6
2020-11-16T03:49:03,42.805,6.029,-0.015,0.002,0.002,102.0,109.0,98.0,13.4,1505.3,324.0,-0.7,1.8,2470.326,13.33,0.015,277.6
2020-11-16T03:52:03,42.805,6.029,-0.007,0.015,0.026,101.0,110.0,100.0,13.3,1505.3,327.7,-0.7,1.8,2470.313,13.33,0.016,335.0
2020-11-16T03:55:03,42.805,6.029,0.004,0.01,0.015,101.0,108.0,100.0,13.4,1505.3,323.5,-0.7,1.8,2470.344,13.33,0.01,21.8
2020-11-16T03:58:03,42.805,6.029,-0.024,0.007,0.029,100.0,106.0,101.0,13.4,1505.3,325.9,-0.7,1.9,2470.314,13.33,0.025,286.3
2020-11-16T04:04:03,42.805,6.029,-0.044,0.008,0.003,101.0,109.0,99.0,13.3,1505.3,326.1,-0.7,1.8,2470.405,13.31,0.044,280.3
2020-11-16T04:07:03,42.805,6.029,-0.004,-0.025,-0.017,101.0,110.0,99.0,13.4,1505.3,325.3,-0.7,1.8,2470.379,13.32,0.025,189.1
2020-11-16T04:10:03,42.805,6.029,-0.043,0.013,0.011,102.0,107.0,99.0,13.4,1505.3,324.5,-0.7,1.9,2470.351,13.32,0.044,286.8
2020-11-16T04:13:03,42.805,6.029,0.025,-0.006,0.021,101.0,110.0,99.0,13.4,1505.3,324.9,-0.7,1.8,2470.393,13.33,0.025,103.5
2020-11-16T04:16:03,42.805,6.029,0.002,-0.007,0.013,100.0,110.0,99.0,13.4,1505.3,324.7,-0.7,1.8,2470.358,13.33,0.007,164.1
2020-11-16T04:19:03,42.805,6.029,-0.015,0.034,-0.005,103.0,110.0,100.0,13.3,1505.3,325.4,-0.7,1.8,2470.399,13.33,0.037,336.2
2020-11-16T04:22:03,42.805,6.029,-0.049,0.007,0.0,101.0,112.0,100.0,13.4,1505.3,326.7,-0.7,1.8,2470.355,13.33,0.049,278.1
2020-11-16T04:25:03,42.805,6.029,-0.032,0.022,0.002,101.0,111.0,100.0,13.4,1505.3,324.1,-0.7,1.8,2470.376,13.33,0.038,304.5
2020-11-16T04:28:03,42.805,6.029,-0.027,0.004,-0.017,101.0,113.0,99.0,13.4,1505.3,324.8,-0.7,1.8,2470.37,13.33,0.027,278.4
2020-11-16T04:31:03,42.805,6.029,-0.039,0.027,0.002,100.0,112.0,99.0,13.3,1505.3,328.2,-0.7,1.8,2470.403,13.33,0.047,304.7
2020-11-16T04:34:03,42.805,6.029,-0.034,0.014,0.007,100.0,114.0,99.0,13.4,1505.3,328.4,-0.7,1.9,2470.379,13.33,0.036,292.4
2020-11-16T04:37:03,42.805,6.029,-0.031,0.011,0.014,102.0,113.0,100.0,13.3,1505.3,325.5,-0.7,1.8,2470.384,13.33,0.032,289.5
2020-11-16T04:40:03,42.805,6.029,-0.034,0.014,-0.006,99.0,111.0,101.0,13.4,1505.3,325.2,-0.7,1.8,2470.42,13.33,0.036,292.4
2020-11-16T04:43:03,42.805,6.029,-0.039,-0.001,-0.018,102.0,110.0,100.0,13.4,1505.3,326.0,-0.7,1.8,2470.375,13.33,0.039,268.5
2020-11-16T04:46:03,42.805,6.029,-0.033,0.01,0.004,100.0,114.0,99.0,13.4,1505.3,323.7,-0.7,1.8,2470.401,13.33,0.034,286.9
2020-11-16T04:49:03,42.805,6.029,-0.055,0.014,-0.019,102.0,113.0,99.0,13.3,1505.3,324.1,-0.7,1.8,2470.438,13.33,0.056,284.3
2020-11-16T04:52:03,42.805,6.029,-0.042,0.014,-0.008,102.0,111.0,99.0,13.4,1505.3,324.1,-0.7,1.8,2470.406,13.33,0.044,288.4
2020-11-16T04:55:03,42.805,6.029,-0.049,0.026,0.025,100.0,112.0,100.0,13.3,1505.3,325.1,-0.7,1.8,2470.394,13.33,0.055,297.9
2020-11-16T04:58:03,42.805,6.029,-0.036,0.016,-0.013,102.0,112.0,100.0,13.3,1505.3,328.0,-0.7,1.8,2470.404,13.33,0.039,294.0
2020-11-16T05:04:03,42.805,6.029,-0.038,0.021,-0.028,101.0,111.0,100.0,13.3,1505.3,327.6,-0.7,1.8,2470.462,13.31,0.043,298.9
2020-11-16T05:07:03,42.805,6.029,-0.008,0.001,-0.005,101.0,110.0,100.0,13.3,1505.3,324.7,-0.7,1.8,2470.448,13.32,0.008,277.1
2020-11-16T05:10:03,42.805,6.029,-0.061,0.014,0.004,101.0,112.0,98.0,13.3,1505.3,327.0,-0.7,1.8,2470.454,13.32,0.062,282.9
2020-11-16T05:13:03,42.805,6.029,-0.015,0.01,0.002,102.0,109.0,101.0,13.4,1505.3,323.8,-0.7,1.9,2470.457,13.33,0.018,303.7
2020-11-16T05:16:03,42.805,6.029,-0.03,0.015,-0.002,102.0,111.0,100.0,13.4,1505.3,326.4,-0.7,1.8,2470.466,13.33,0.033,296.6
2020-11-16T05:19:03,42.805,6.029,-0.03,0.031,0.023,100.0,110.0,99.0,13.4,1505.3,325.6,-0.7,1.8,2470.469,13.33,0.043,315.9
2020-11-16T05:22:03,42.805,6.029,-0.012,-0.008,-0.008,101.0,108.0,99.0,13.3,1505.3,323.7,-0.7,1.8,2470.438,13.33,0.014,236.3
2020-11-16T05:25:03,42.805,6.029,-0.066,0.015,-0.025,103.0,110.0,99.0,13.4,1505.3,323.3,-0.7,1.8,2470.45,13.33,0.067,282.8
2020-11-16T05:28:03,42.805,6.029,-0.025,0.009,-0.01,102.0,110.0,99.0,13.4,1505.3,326.8,-0.7,1.8,2470.469,13.33,0.026,289.8
2020-11-16T05:31:03,42.805,6.029,-0.031,0.008,-0.031,101.0,112.0,99.0,13.4,1505.3,326.4,-0.7,1.8,2470.472,13.33,0.032,284.5
2020-11-16T05:34:03,42.805,6.029,-0.034,-0.002,-0.016,103.0,110.0,100.0,13.3,1505.3,325.3,-0.7,1.8,2470.458,13.33,0.034,266.6
2020-11-16T05:37:03,42.805,6.029,-0.023,0.02,0.006,102.0,109.0,99.0,13.3,1505.3,326.5,-0.7,1.8,2470.487,13.33,0.03,311.0
2020-11-16T05:40:03,42.805,6.029,-0.016,0.007,0.004,103.0,108.0,99.0,13.3,1505.3,325.0,-0.7,1.9,2470.483,13.33,0.017,293.6
2020-11-16T05:43:03,42.805,6.029,-0.046,0.015,0.012,101.0,112.0,99.0,13.4,1505.3,327.1,-0.7,1.8,2470.455,13.33,0.048,288.1
2020-11-16T05:46:03,42.805,6.029,-0.053,-0.005,0.001,100.0,113.0,99.0,13.4,1505.3,326.4,-0.7,1.8,2470.482,13.33,0.053,264.6
2020-11-16T05:49:03,42.805,6.029,-0.026,0.004,0.015,100.0,110.0,99.0,13.4,1505.3,324.2,-0.7,1.8,2470.488,13.33,0.026,278.7
2020-11-16T05:52:03,42.805,6.029,-0.024,0.011,0.022,102.0,113.0,98.0,13.4,1505.3,327.3,-0.7,1.8,2470.486,13.33,0.026,294.6
2020-11-16T05:55:03,42.805,6.029,-0.061,0.002,-0.043,101.0,111.0,99.0,13.4,1505.3,327.9,-0.7,1.8,2470.45,13.33,0.061,271.9
2020-11-16T05:58:03,42.805,6.029,-0.015,0.013,0.018,100.0,110.0,99.0,13.3,1505.3,325.4,-0.7,1.8,2470.509,13.33,0.019,310.9
2020-11-16T06:04:03,42.805,6.029,-0.02,0.028,0.046,101.0,111.0,99.0,13.4,1505.3,324.8,-0.7,1.8,2470.553,13.31,0.034,324.5
2020-11-16T06:07:03,42.805,6.029,-0.055,0.006,-0.022,103.0,112.0,99.0,13.3,1505.3,325.8,-0.7,1.8,2470.587,13.32,0.055,276.2
2020-11-16T06:10:03,42.805,6.029,-0.042,0.017,0.027,100.0,113.0,100.0,13.3,1505.3,326.2,-0.7,1.8,2470.534,13.32,0.045,292.0
2020-11-16T06:13:03,42.805,6.029,-0.031,0.01,0.017,101.0,113.0,99.0,13.4,1505.3,325.1,-0.7,1.9,2470.551,13.32,0.032,287.9
2020-11-16T06:16:03,42.805,6.029,-0.051,-0.01,-0.034,100.0,114.0,99.0,13.4,1505.3,326.4,-0.7,1.9,2470.566,13.33,0.051,258.9
2020-11-16T06:19:03,42.805,6.029,-0.026,0.019,0.041,101.0,114.0,98.0,13.3,1505.3,325.4,-0.7,1.8,2470.529,13.33,0.032,306.2
2020-11-16T06:22:03,42.805,6.029,-0.055,0.005,-0.021,100.0,110.0,100.0,13.4,1505.3,324.7,-0.7,1.8,2470.545,13.33,0.055,275.2
2020-11-16T06:25:03,42.805,6.029,-0.031,0.001,-0.004,101.0,114.0,100.0,13.4,1505.3,326.5,-0.7,1.8,2470.56,13.33,0.031,271.8
2020-11-16T06:28:03,42.805,6.029,-0.022,0.02,0.015,101.0,111.0,99.0,13.4,1505.3,326.0,-0.7,1.8,2470.55,13.33,0.029,312.3
2020-11-16T06:31:03,42.805,6.029,-0.072,0.017,0.004,102.0,113.0,99.0,13.3,1505.3,327.0,-0.7,1.8,2470.55,13.33,0.073,283.3
2020-11-16T06:34:03,42.805,6.029,-0.057,0.019,-0.005,102.0,112.0,100.0,13.4,1505.3,325.0,-0.7,1.8,2470.545,13.33,0.06,288.4
2020-11-16T06:37:03,42.805,6.029,-0.058,0.029,-0.031,102.0,112.0,100.0,13.4,1505.3,325.5,-0.7,1.8,2470.527,13.33,0.064,296.6
2020-11-16T06:40:03,42.805,6.029,-0.063,0.022,0.024,101.0,111.0,100.0,13.3,1505.3,327.5,-0.7,1.8,2470.524,13.33,0.066,289.2
2020-11-16T06:43:03,42.805,6.029,-0.047,0.016,0.01,102.0,115.0,99.0,13.4,1505.3,326.3,-0.7,1.8,2470.571,13.33,0.049,288.8
2020-11-16T06:46:03,42.805,6.029,-0.026,0.025,0.01,101.0,113.0,99.0,13.3,1505.3,325.3,-0.8,1.8,2470.526,13.33,0.036,313.9
2020-11-16T06:49:03,42.805,6.029,-0.031,0.019,0.013,103.0,111.0,100.0,13.4,1505.3,325.9,-0.7,1.8,2470.555,13.33,0.036,301.5
2020-11-16T06:52:03,42.805,6.029,-0.036,0.015,-0.004,103.0,112.0,99.0,13.4,1505.3,327.3,-0.7,1.8,2470.56,13.33,0.039,292.6
2020-11-16T06:55:03,42.805,6.029,-0.031,0.029,0.015,102.0,112.0,100.0,13.4,1505.3,328.0,-0.7,1.8,2470.542,13.33,0.042,313.1
2020-11-16T06:58:03,42.805,6.029,-0.059,0.017,-0.004,101.0,112.0,100.0,13.4,1505.3,327.5,-0.7,1.8,2470.554,13.33,0.061,286.1
2020-11-16T07:04:03,42.805,6.029,-0.061,0.041,0.0,101.0,113.0,100.0,13.3,1505.3,327.9,-0.8,1.8,2470.587,13.31,0.073,303.9
2020-11-16T07:07:03,42.805,6.029,-0.024,0.004,0.029,102.0,114.0,101.0,13.4,1505.3,326.3,-0.7,1.9,2470.606,13.32,0.024,279.5
2020-11-16T07:10:03,42.805,6.029,-0.06,0.026,-0.01,101.0,113.0,99.0,13.4,1505.3,326.6,-0.7,1.9,2470.567,13.32,0.065,293.4
2020-11-16T07:13:03,42.805,6.029,-0.043,0.0,-0.026,103.0,114.0,100.0,13.4,1505.3,324.8,-0.7,1.8,2470.579,13.32,0.043,270.0
2020-11-16T07:16:03,42.805,6.029,-0.069,0.003,-0.034,101.0,112.0,101.0,13.4,1505.3,325.1,-0.7,1.8,2470.595,13.33,0.069,272.5
2020-11-16T07:19:03,42.805,6.029,-0.019,0.007,0.032,103.0,111.0,100.0,13.4,1505.3,323.6,-0.7,1.8,2470.571,13.33,0.02,290.2
2020-11-16T07:22:03,42.805,6.029,-0.022,0.024,0.019,103.0,113.0,100.0,13.4,1505.3,326.1,-0.7,1.8,2470.564,13.33,0.032,317.5
2020-11-16T07:25:03,42.805,6.029,-0.05,0.021,0.001,101.0,113.0,100.0,13.4,1505.3,323.6,-0.7,1.8,2470.609,13.33,0.054,292.8
2020-11-16T07:28:03,42.805,6.029,-0.031,0.029,0.049,103.0,115.0,101.0,13.4,1505.3,325.6,-0.7,1.8,2470.57,13.33,0.042,313.1
2020-11-16T07:31:03,42.805,6.029,-0.043,0.016,0.003,102.0,111.0,100.0,13.4,1505.3,324.5,-0.7,1.8,2470.548,13.33,0.045,290.4
2020-11-16T07:34:03,42.805,6.029,-0.027,0.04,0.016,101.0,115.0,100.0,13.4,1505.3,324.9,-0.7,1.8,2470.543,13.33,0.048,326.0
2020-11-16T07:37:03,42.805,6.029,-0.054,-0.001,-0.02,102.0,112.0,99.0,13.4,1505.3,323.0,-0.7,1.9,2470.585,13.33,0.054,268.9
2020-11-16T07:40:03,42.805,6.029,-0.027,0.024,0.006,101.0,114.0,101.0,13.3,1505.3,326.7,-0.7,1.8,2470.564,13.33,0.036,311.6
2020-11-16T07:43:03,42.805,6.029,-0.028,0.015,0.0,101.0,112.0,99.0,13.4,1505.3,327.6,-0.7,1.8,2470.555,13.33,0.031,298.2
2020-11-16T07:46:03,42.805,6.029,-0.026,0.001,0.006,102.0,111.0,99.0,13.4,1505.3,323.5,-0.7,1.8,2470.578,13.33,0.026,272.2
2020-11-16T07:49:03,42.805,6.029,-0.053,0.012,0.001,101.0,112.0,100.0,13.4,1505.3,325.1,-0.7,1.8,2470.553,13.33,0.054,282.8
2020-11-16T07:52:03,42.805,6.029,-0.051,0.021,0.027,102.0,115.0,101.0,13.4,1505.3,324.3,-0.7,1.8,2470.555,13.33,0.055,292.4
2020-11-16T07:55:03,42.805,6.029,-0.049,0.002,-0.007,102.0,113.0,100.0,13.4,1505.3,325.0,-0.7,1.8,2470.574,13.33,0.049,272.3
2020-11-16T07:58:03,42.805,6.029,-0.046,0.014,-0.015,103.0,112.0,100.0,13.3,1505.3,327.9,-0.7,1.8,2470.571,13.33,0.048,286.9
2020-11-16T08:04:03,42.805,6.029,-0.066,0.001,-0.029,102.0,115.0,100.0,13.4,1505.3,326.3,-0.7,1.8,2470.596,13.31,0.066,270.9
2020-11-16T08:07:03,42.805,6.029,-0.066,0.04,0.023,102.0,117.0,100.0,13.3,1505.3,323.2,-0.7,1.8,2470.634,13.32,0.077,301.2
2020-11-16T08:10:03,42.805,6.029,-0.051,0.026,-0.044,103.0,112.0,101.0,13.3,1505.3,325.4,-0.7,1.8,2470.587,13.32,0.057,297.0
2020-11-16T08:13:03,42.805,6.029,-0.071,0.023,-0.034,102.0,114.0,100.0,13.4,1505.3,328.0,-0.7,1.8,2470.577,13.32,0.074,287.9
2020-11-16T08:16:03,42.805,6.029,-0.065,0.014,-0.03,102.0,114.0,102.0,13.3,1505.3,323.4,-0.7,1.8,2470.552,13.33,0.066,282.2
2020-11-16T08:19:03,42.805,6.029,-0.031,0.005,0.006,103.0,115.0,99.0,13.3,1505.3,325.6,-0.7,1.8,2470.584,13.33,0.031,279.2
2020-11-16T08:22:03,42.805,6.029,-0.057,0.02,0.003,102.0,114.0,100.0,13.4,1505.3,324.5,-0.7,1.8,2470.589,13.33,0.06,289.3
2020-11-16T08:25:03,42.805,6.029,-0.021,0.031,0.022,102.0,116.0,100.0,13.4,1505.3,326.4,-0.7,1.8,2470.587,13.33,0.037,325.9
2020-11-16T08:28:03,42.805,6.029,-0.04,0.024,0.008,101.0,113.0,101.0,13.4,1505.3,323.9,-0.7,1.8,2470.56,13.33,0.046,301.0
2020-11-16T08:31:03,42.805,6.029,-0.068,0.004,-0.028,103.0,114.0,101.0,13.4,1505.3,324.7,-0.7,1.8,2470.578,13.33,0.068,273.4
2020-11-16T08:34:03,42.805,6.029,-0.049,0.035,-0.014,102.0,113.0,102.0,13.4,1505.3,326.2,-0.7,1.9,2470.556,13.33,0.06,305.5
2020-11-16T08:37:03,42.805,6.029,-0.061,0.03,0.021,104.0,114.0,99.0,13.4,1505.3,325.5,-0.7,1.9,2470.543,13.33,0.067,296.2
2020-11-16T08:40:03,42.805,6.029,-0.023,0.02,0.024,103.0,116.0,100.0,13.4,1505.3,322.6,-0.7,1.8,2470.548,13.33,0.03,311.0
2020-11-16T08:43:03,42.805,6.029,-0.05,0.019,-0.013,103.0,113.0,102.0,13.4,1505.3,324.5,-0.7,1.8,2470.529,13.33,0.053,290.8
2020-11-16T08:46:03,42.805,6.029,-0.04,0.003,-0.017,106.0,113.0,101.0,13.3,1505.3,326.7,-0.7,1.8,2470.562,13.33,0.04,274.3
2020-11-16T08:49:03,42.805,6.029,-0.055,0.024,-0.013,104.0,115.0,100.0,13.4,1505.3,328.1,-0.7,1.8,2470.519,13.33,0.06,293.6
2020-11-16T08:52:03,42.805,6.029,-0.036,0.02,0.011,103.0,114.0,101.0,13.4,1505.3,324.4,-0.7,1.8,2470.581,13.33,0.041,299.1
2020-11-16T08:55:03,42.805,6.029,-0.034,0.027,0.013,102.0,115.0,101.0,13.4,1505.3,323.8,-0.7,1.9,2470.542,13.33,0.043,308.5
2020-11-16T08:58:03,42.805,6.029,-0.06,0.015,-0.004,103.0,114.0,101.0,13.4,1505.3,326.9,-0.7,1.8,2470.556,13.33,0.061,284.0
2020-11-16T09:04:03,42.805,6.029,-0.055,0.014,-0.02,103.0,114.0,101.0,13.4,1505.3,325.1,-0.7,1.8,2470.571,13.31,0.056,284.3
2020-11-16T09:07:03,42.805,6.029,-0.072,0.015,-0.041,103.0,115.0,100.0,13.4,1505.3,324.7,-0.7,1.8,2470.571,13.31,0.073,281.8
2020-11-16T09:10:03,42.805,6.029,-0.038,0.022,-0.012,102.0,112.0,101.0,13.4,1505.3,326.5,-0.7,1.8,2470.58,13.32,0.043,300.1
2020-11-16T09:13:03,42.805,6.029,-0.023,0.027,0.007,103.0,114.0,100.0,13.4,1505.3,325.6,-0.7,1.8,2470.575,13.32,0.035,319.6
2020-11-16T09:16:03,42.805,6.029,-0.047,0.021,-0.028,103.0,114.0,101.0,13.3,1505.3,325.0,-0.7,1.8,2470.575,13.33,0.051,294.1
2020-11-16T09:19:03,42.805,6.029,-0.076,0.005,-0.037,102.0,116.0,101.0,13.4,1505.3,324.9,-0.7,1.8,2470.57,13.33,0.076,273.8
2020-11-16T09:22:03,42.805,6.029,-0.043,0.0,-0.01,103.0,116.0,100.0,13.4,1505.3,324.1,-0.7,1.8,2470.555,13.33,0.043,270.0
2020-11-16T09:25:03,42.805,6.029,-0.04,0.014,-0.029,103.0,115.0,101.0,13.3,1505.3,326.8,-0.7,1.8,2470.547,13.33,0.042,289.3
2020-11-16T09:28:03,42.805,6.029,-0.045,0.016,-0.019,104.0,113.0,101.0,13.4,1505.3,324.4,-0.7,1.9,2470.594,13.33,0.047,289.6
2020-11-16T09:31:03,42.805,6.029,-0.041,-0.002,-0.027,103.0,112.0,101.0,13.4,1505.3,325.6,-0.7,1.8,2470.541,13.33,0.041,267.2
2020-11-16T09:34:03,42.805,6.029,-0.047,0.005,-0.006,103.0,116.0,101.0,13.4,1505.3,326.4,-0.7,1.8,2470.538,13.33,0.047,276.1
2020-11-16T09:37:03,42.805,6.029,-0.051,0.026,-0.027,103.0,112.0,100.0,13.4,1505.3,326.1,-0.7,1.8,2470.53,13.33,0.057,297.0
2020-11-16T09:40:03,42.805,6.029,-0.055,0.011,0.004,102.0,118.0,101.0,13.3,1505.3,326.5,-0.7,1.8,2470.549,13.33,0.056,281.3
2020-11-16T09:43:03,42.805,6.029,-0.041,0.026,0.007,103.0,118.0,101.0,13.3,1505.3,325.9,-0.7,1.8,2470.554,13.33,0.048,302.4
2020-11-16T09:46:03,42.805,6.029,-0.059,-0.003,-0.034,104.0,110.0,100.0,13.4,1505.3,325.3,-0.7,1.9,2470.525,13.33,0.059,267.1
2020-11-16T09:49:03,42.805,6.029,-0.039,0.011,0.021,104.0,115.0,99.0,13.3,1505.3,322.5,-0.7,1.8,2470.513,13.33,0.04,285.7
2020-11-16T09:52:03,42.805,6.029,-0.057,0.022,0.011,100.0,115.0,101.0,13.4,1505.3,327.4,-0.7,1.8,2470.542,13.33,0.061,291.1
2020-11-16T09:55:03,42.805,6.029,-0.025,0.0,0.0,105.0,116.0,99.0,13.3,1505.3,326.5,-0.7,1.8,2470.547,13.33,0.025,270.0
2020-11-16T09:58:03,42.805,6.029,-0.053,0.007,0.007,102.0,115.0,100.0,13.4,1505.3,326.1,-0.7,1.8,2470.528,13.33,0.053,277.5